SCP
0 0 0 0 0 0 0 0 0 0 0 0 0 1 1 1 1 1 1 1 1 1 1 1 2 2 2 3 3 3 3 3 2 2 1 1 1 1 1 1 1 1 1 1 1 1 1 2 2
0 0 0 0 0 0 0 0 0 0 0 0 1 1 1 1 1 1 1 1 1 1 1 1 2 2 2 3 3 3 3 2 2 2 1 1 1 1 1 1 1 1 1 1 1 1 2 2 2
0 0 0 0 0 0 0 0 0 0 0 1 1 1 2 2 2 2 1 1 1 1 1 1 1 2 2 3 3 3 3 2 2 2 1 1 1 1 1 1 1 1 1 2 2 2 2 2 2
0 0 0 0 0 0 0 0 0 0 0 1 2 2 2 2 2 2 2 2 1 1 1 1 1 2 2 3 3 3 3 2 2 2 1 1 1 1 1 1 1 1 1 1 1 1 1 2 2
0 0 0 0 0 0 0 0 0 0 1 2 3 3 2 2 2 2 2 2 1 1 1 1 1 1 2 3 3 3 3 2 2 2 1 1 1 1 1 1 1 1 1 1 1 1 1 1 1
0 0 0 0 0 0 0 0 1 1 2 3 4 3 2 2 2 2 2 2 1 1 1 1 1 1 2 2 3 3 3 3 2 2 2 1 1 1 1 1 1 1 1 1 1 1 1 1 1
0 0 0 0 0 0 0 0 1 1 2 4 4 3 2 2 2 2 2 1 1 1 1 1 1 1 1 2 3 3 3 3 2 2 2 1 1 1 1 1 1 1 1 1 1 1 1 1 1
0 0 0 0 0 0 0 0 0 1 2 3 3 2 2 2 2 2 2 1 1 1 1 1 1 1 1 1 2 3 3 3 2 2 2 2 1 1 1 1 1 1 1 1 1 1 1 2 2
0 0 0 0 0 0 0 1 0 1 1 2 2 2 3 3 2 2 1 1 1 1 1 1 1 1 1 1 2 2 2 3 2 2 2 2 1 1 1 1 1 1 1 1 1 1 2 2 2
0 0 0 0 0 0 0 1 1 1 1 2 2 2 3 3 2 1 1 1 1 1 2 2 2 2 1 1 1 1 2 2 2 2 2 1 1 1 1 1 1 1 1 1 1 2 2 2 2
0 0 0 0 0 0 1 1 1 1 1 1 2 2 2 2 2 1 1 1 1 1 2 2 2 2 1 1 1 1 1 1 1 1 1 1 1 1 1 1 1 1 1 1 1 1 1 2 2
0 0 0 0 0 1 1 1 1 1 1 1 1 2 2 2 1 1 1 1 1 1 1 2 2 2 1 1 1 1 1 1 1 1 1 1 1 1 1 1 1 1 1 1 1 1 1 1 2
0 0 0 0 0 1 1 1 1 1 1 1 1 1 1 1 1 1 1 1 2 2 2 2 2 2 2 1 1 1 1 1 1 1 1 1 1 1 1 1 1 1 1 1 1 1 1 2 2
0 0 0 0 0 1 1 1 1 1 2 2 2 1 1 2 2 2 2 2 2 2 2 2 2 2 2 2 1 1 1 1 1 1 1 1 1 1 1 1 1 1 1 1 1 1 1 2 1
0 0 0 0 0 0 1 1 1 1 2 2 1 1 1 1 2 2 2 2 2 2 2 2 2 2 1 1 1 1 1 1 1 1 1 1 1 1 1 1 1 1 1 1 1 1 1 1 1
0 0 0 0 0 0 0 1 1 1 2 2 1 1 1 1 1 2 2 2 2 2 2 2 3 2 2 2 1 1 2 1 1 1 1 1 1 1 1 1 1 1 2 2 1 1 1 1 0
0 0 0 0 0 0 1 1 1 1 1 2 1 1 1 1 1 1 1 1 1 2 2 2 3 3 3 2 2 2 2 2 2 2 1 1 1 1 1 2 2 1 1 1 1 1 1 0 0
0 0 0 0 0 1 1 1 1 1 1 1 1 1 1 1 1 1 1 1 1 1 2 2 3 3 3 3 3 2 2 2 2 2 2 2 2 1 1 1 1 1 1 1 1 1 1 0 0
0 0 0 0 0 1 1 1 1 1 1 1 1 1 1 1 1 1 1 1 1 2 3 3 3 2 3 3 3 3 2 2 2 2 2 2 2 1 1 1 1 1 1 1 1 1 1 1 1
0 0 0 0 0 0 1 1 1 1 1 1 1 1 1 1 1 1 2 3 3 3 3 3 2 2 2 3 3 3 2 2 2 2 2 2 2 1 1 1 1 1 1 1 1 1 1 1 1
0 0 0 0 0 0 0 0 0 1 1 1 1 1 1 2 3 3 4 4 5 4 3 2 2 2 2 2 3 3 3 2 2 2 2 2 2 1 1 1 1 1 1 1 1 1 1 1 1
0 0 0 0 0 0 0 0 0 1 1 1 1 1 2 3 4 4 4 5 5 4 3 2 2 2 2 2 3 3 3 2 2 2 2 2 2 2 2 2 2 2 2 2 1 1 2 2 2
0 0 0 0 0 0 0 0 0 1 1 1 1 1 2 3 3 3 3 3 4 4 3 3 3 3 3 3 3 3 3 3 2 2 2 2 2 2 2 2 2 2 2 2 2 2 2 2 2
0 0 0 0 0 0 0 0 0 1 1 1 1 1 2 2 2 1 1 2 2 3 3 3 2 3 3 3 4 4 4 4 3 3 3 3 3 2 1 1 2 2 2 2 2 2 2 2 2
0 0 0 0 0 0 0 0 0 1 1 1 1 2 2 2 2 2 2 2 3 3 3 2 2 2 2 3 4 4 4 4 3 4 4 3 3 2 1 1 1 1 1 1 1 1 1 2 2
0 0 0 0 0 0 0 0 0 1 1 2 2 2 2 3 3 2 2 2 3 4 4 3 2 2 2 2 2 3 3 3 3 4 4 4 2 2 1 1 1 1 1 1 1 1 1 2 2
0 0 0 0 0 0 0 0 1 1 1 2 2 2 3 3 3 3 3 3 3 4 4 3 3 2 2 1 1 2 2 2 2 4 4 3 2 2 1 1 1 1 1 1 1 1 1 2 2
0 0 0 0 0 0 0 0 1 1 1 1 2 2 2 2 3 3 3 3 4 5 5 4 4 3 2 2 2 2 2 2 2 3 3 3 2 2 2 2 2 1 1 1 1 1 1 1 1
0 0 0 0 0 0 0 0 1 1 1 1 1 2 2 2 2 2 2 2 3 5 6 5 5 4 3 2 2 2 2 2 2 3 3 2 2 2 3 3 3 2 2 1 1 1 1 1 1
0 0 0 0 0 0 0 0 1 1 1 1 1 2 2 2 2 2 1 1 3 5 6 6 5 4 3 3 2 2 2 2 2 3 3 2 1 2 3 4 4 3 3 2 1 1 1 1 1
Wind_Speed
4 4 2 1 5 6 2 2 1 2 2 2 3 5 5 3 2 3 1 6 7 6 5 7 9 9 9 9 9 9 9 9 8 8 9 8 8 8 8 8 8 9 9 9 10 10 10 9 9
3 4 1 3 6 3 3 2 1 0 2 3 4 4 5 3 3 5 3 5 8 7 5 6 8 9 9 9 9 9 9 8 8 8 8 8 8 8 7 7 8 8 8 8 9 9 9 9 9
4 2 3 5 4 3 2 1 1 1 2 2 3 4 3 2 4 4 4 8 8 6 4 6 9 9 9 9 9 8 8 8 7 7 7 7 7 7 7 7 7 7 7 7 8 8 8 8 8
3 2 4 5 1 2 3 2 1 1 2 4 4 4 3 2 3 5 9 10 8 5 4 5 9 9 8 8 8 8 8 7 7 7 7 7 7 6 6 6 6 7 6 6 7 6 6 6 6
3 4 5 4 2 2 2 2 2 1 1 3 4 4 3 4 6 10 10 9 8 5 4 4 8 8 8 8 8 8 7 7 6 7 8 7 7 6 6 6 6 6 6 6 6 6 5 5 6
4 5 5 1 3 2 1 1 2 3 2 3 4 4 2 3 7 8 9 7 6 6 4 3 7 8 7 7 7 7 6 6 7 8 8 7 7 6 6 6 6 6 6 6 6 5 5 4 5
4 4 3 1 1 2 1 1 2 2 2 2 3 4 1 2 4 7 7 6 5 5 4 3 3 4 6 6 6 6 6 6 6 7 7 7 6 5 5 5 5 6 5 5 5 5 4 4 4
5 5 3 0 1 2 1 1 2 3 2 2 3 5 4 4 7 8 7 6 5 3 3 2 2 2 2 3 5 5 5 5 5 6 6 6 5 5 5 4 5 5 5 4 4 4 4 4 4
4 6 1 3 2 2 1 1 1 2 4 2 2 3 4 11 11 9 6 4 3 3 1 2 2 2 2 2 3 3 4 3 3 3 4 4 3 3 3 3 4 4 4 4 3 3 4 3 3
4 3 4 4 3 3 2 2 3 3 3 2 3 5 10 11 10 10 8 7 6 5 3 2 2 2 2 2 2 1 2 2 2 2 3 3 2 2 2 3 4 4 4 4 4 4 4 3 2
3 4 3 2 2 2 3 2 2 5 2 4 6 9 11 11 10 9 8 7 6 5 4 3 2 2 2 1 1 1 1 1 2 2 2 2 2 2 2 2 3 3 3 3 4 4 3 3 2
2 2 2 2 0 1 3 3 2 3 4 4 8 12 12 11 10 9 8 7 5 4 4 3 3 2 2 2 1 1 1 1 1 1 2 2 1 2 2 2 2 2 2 2 2 2 3 2 2
1 2 1 1 1 1 3 2 2 1 1 7 10 10 10 9 7 6 5 5 5 5 4 4 4 3 3 2 1 2 1 1 1 1 1 2 1 1 1 1 2 2 2 2 2 2 2 2 2
1 1 3 3 2 1 4 1 2 1 5 7 9 9 8 8 7 5 4 4 5 5 5 4 4 4 3 3 2 2 2 1 1 1 1 2 1 1 1 2 2 1 1 2 2 2 2 2 2
1 3 5 3 2 1 4 3 1 2 6 7 7 7 6 5 5 6 6 5 5 5 5 5 5 4 4 3 3 2 2 2 1 1 1 1 2 2 2 2 1 1 1 2 2 2 2 2 2
3 4 3 4 3 1 4 3 4 2 7 7 6 7 6 5 5 5 5 4 4 4 4 4 5 5 4 3 3 2 2 2 1 1 1 1 2 2 2 2 1 1 1 2 2 2 2 2 2
4 1 1 4 2 2 3 3 4 1 6 6 6 6 6 5 4 4 4 5 5 4 4 4 4 5 4 4 3 2 2 2 1 1 1 1 2 2 2 2 1 2 2 1 1 2 1 1 1
2 1 1 3 2 2 1 3 3 1 4 4 4 4 4 5 6 4 4 4 4 4 4 4 4 4 4 3 3 3 2 1 1 1 1 2 2 2 2 2 2 2 2 1 1 2 2 1 1
4 2 2 4 2 1 1 3 3 1 2 3 3 4 5 5 4 3 3 4 4 4 4 4 4 4 4 3 3 2 2 1 1 1 1 1 2 2 2 2 2 2 2 1 2 2 2 1 1
2 1 2 3 1 2 0 2 2 1 3 3 4 4 5 4 2 3 4 4 4 5 4 4 4 4 4 3 3 2 2 2 1 1 1 1 2 2 3 3 2 2 2 2 1 2 1 1 1
2 4 4 3 3 2 1 3 3 2 1 0 1 2 3 5 5 4 4 4 4 5 5 5 4 4 4 4 3 3 2 2 2 1 1 0 1 2 2 3 2 2 2 2 1 2 2 1 0
4 5 5 3 1 2 1 2 5 3 2 1 2 2 2 3 4 4 4 4 4 4 4 4 3 3 4 5 5 4 3 2 2 2 1 1 1 1 2 2 3 2 2 2 2 2 1 2 1
5 1 3 2 3 1 2 2 6 2 3 5 4 3 3 3 3 4 3 4 3 4 4 4 3 3 3 4 5 4 3 2 1 1 2 1 0 1 1 2 2 2 2 2 2 2 2 2 2
3 6 6 5 5 0 2 3 5 3 4 4 3 3 2 2 2 2 2 2 2 3 3 3 4 3 3 4 4 4 4 3 3 2 2 1 0 0 0 1 2 2 2 2 2 2 2 2 2
4 6 4 5 4 4 2 2 6 4 3 3 3 2 2 2 3 2 2 2 3 3 3 3 3 2 3 3 4 5 5 5 5 4 3 2 1 1 1 1 1 1 2 2 2 2 2 2 2
3 8 7 5 4 4 2 3 5 3 3 1 0 0 1 1 1 2 2 2 3 3 3 3 3 2 2 3 3 3 4 3 2 3 3 3 3 2 2 2 2 2 2 2 2 1 2 2 2
5 3 5 7 2 1 3 4 5 2 4 3 2 2 2 0 0 1 1 1 2 3 4 4 5 4 4 4 4 3 4 4 3 3 3 3 2 2 2 2 2 2 2 2 2 2 2 2 2
4 7 5 6 5 3 3 3 4 3 3 2 2 1 2 1 1 0 1 1 2 3 3 3 5 5 4 4 3 3 4 4 4 3 3 3 3 2 3 2 2 2 2 2 2 2 2 2 2
3 4 5 4 4 6 3 6 4 5 4 3 2 2 1 1 1 1 0 0 0 1 2 2 2 2 3 3 2 2 2 3 3 3 3 3 3 3 3 3 2 2 2 2 2 2 2 2 2
3 4 5 4 2 3 4 6 3 2 2 2 2 2 1 1 1 1 1 1 1 0 1 1 2 2 2 2 2 2 1 2 2 3 3 3 3 3 3 3 3 3 3 3 3 3 3 3 3
Wind_Direction
140 131 130 99 56 49 24 324 310 337 13 34 85 95 108 103 142 157 127 135 130 133 146 152 147 141 135 127 121 117 114 112 114 117 118 117 119 119 121 122 123 126 130 131 128 127 128 127 128
136 146 101 61 73 54 322 299 339 258 149 120 81 81 82 74 75 109 129 142 134 137 139 148 148 142 136 130 125 120 117 113 112 115 119 119 120 122 123 122 121 123 126 130 130 129 130 128 128
160 167 86 69 81 154 233 257 202 127 111 91 78 66 78 106 128 147 157 139 129 134 137 153 150 143 138 134 129 125 120 117 117 117 121 124 123 122 123 122 122 122 121 127 129 127 127 127 127
129 57 55 67 70 235 221 227 198 122 61 48 85 69 55 62 148 144 135 135 131 131 135 154 150 146 142 138 133 128 125 123 124 125 126 125 124 122 123 122 120 122 120 121 124 123 123 125 128
68 77 59 40 318 279 248 222 165 99 73 57 81 84 35 20 100 121 132 135 136 132 135 150 150 149 146 142 138 133 128 126 122 123 125 123 124 119 117 121 122 122 123 123 119 113 121 131 131
60 64 72 11 319 318 299 153 94 76 80 75 84 94 49 93 115 131 133 132 134 138 137 144 154 151 146 142 140 134 129 124 119 121 122 121 121 120 115 118 118 117 116 120 121 118 116 118 128
98 90 115 156 307 325 249 128 121 117 96 105 110 100 85 124 132 127 121 118 119 125 129 134 148 154 152 146 137 133 129 121 117 119 120 120 118 112 110 115 116 113 112 117 121 123 118 115 121
119 99 87 271 201 275 273 88 105 112 117 112 106 136 179 176 130 115 107 106 113 118 128 132 126 120 130 146 141 134 127 120 115 117 120 120 115 104 99 102 112 114 115 116 118 124 121 116 118
87 79 143 215 189 233 173 100 65 93 103 90 93 141 154 134 127 120 116 115 134 150 147 142 134 123 116 132 141 134 130 113 103 98 108 100 77 71 72 87 114 115 115 109 103 108 103 93 102
88 123 214 215 201 197 176 149 156 106 93 88 68 81 115 130 137 142 150 161 171 180 184 167 152 142 131 147 103 84 85 74 62 54 61 62 66 64 69 59 91 100 99 86 78 82 78 67 68
130 177 223 248 223 195 163 145 140 138 189 198 162 145 142 145 149 158 167 172 180 178 178 172 168 150 140 120 112 89 80 74 60 59 60 63 61 54 51 46 44 48 63 61 53 53 56 57 61
135 238 212 250 168 169 170 148 130 175 214 169 153 149 151 158 165 171 176 180 174 167 176 166 165 155 152 134 121 114 105 101 88 70 73 78 72 58 58 67 55 50 55 61 54 60 62 61 61
163 269 295 297 357 160 126 132 148 210 126 116 129 142 156 162 167 170 173 171 167 175 180 176 165 165 158 146 150 138 135 129 124 99 90 109 105 91 77 77 75 69 67 76 70 66 64 56 46
252 308 332 340 11 85 125 85 85 243 125 125 137 152 163 167 167 160 165 173 177 178 180 176 172 166 155 155 161 157 153 146 135 137 138 132 125 120 107 89 85 79 79 81 87 81 76 61 59
13 11 359 2 7 42 104 29 265 215 129 135 149 156 161 171 171 176 182 181 181 180 173 175 175 163 159 162 169 158 152 144 145 150 142 140 135 134 121 107 93 81 87 89 81 69 69 68 61
46 46 356 315 8 33 112 241 269 184 145 153 162 163 165 181 186 188 182 175 173 169 170 178 168 161 163 162 160 150 144 140 140 133 124 122 124 128 118 111 103 96 94 93 90 79 72 58 52
35 53 289 314 6 54 103 247 279 184 160 169 173 173 174 182 197 198 185 176 171 169 162 160 154 155 160 156 141 122 111 118 129 117 112 117 118 126 124 116 113 111 99 87 105 83 96 86 57
214 195 279 284 319 56 70 276 305 173 174 180 176 174 177 192 210 198 184 175 161 155 152 152 147 147 140 129 115 102 94 90 99 107 119 119 119 123 126 115 115 114 105 88 88 95 77 84 74
161 161 246 267 267 110 230 288 294 220 169 184 187 185 193 211 212 190 181 172 154 148 147 157 152 153 143 140 145 140 147 139 100 100 117 122 126 133 135 129 133 120 120 133 123 106 88 65 61
149 175 270 298 354 139 132 318 303 181 194 196 196 203 203 191 185 190 181 170 167 168 167 165 167 162 160 160 156 146 137 127 130 116 109 123 128 150 160 151 143 136 131 121 118 116 111 99 76
202 192 214 243 346 28 74 340 342 330 327 81 224 219 210 194 195 195 184 182 171 172 175 172 174 163 157 143 120 101 79 76 81 86 107 139 144 160 157 157 146 149 150 161 165 149 145 162 135
244 223 192 187 86 301 63 285 296 301 319 291 269 252 232 218 191 181 174 176 180 181 170 163 164 158 150 143 143 144 146 155 171 171 167 137 120 146 152 148 155 156 153 164 181 155 163 151 165
213 171 151 153 148 35 10 147 286 326 300 282 270 252 236 208 182 182 184 181 172 166 160 154 146 148 145 145 148 143 138 147 127 126 125 103 70 152 158 155 154 162 165 173 172 152 162 165 164
147 73 59 52 74 37 252 171 270 254 252 279 278 267 239 203 185 180 155 140 138 136 145 144 145 157 155 156 155 158 152 154 145 139 147 143 123 231 210 169 171 176 173 181 188 178 169 171 166
93 89 34 6 14 251 266 173 247 263 264 243 249 262 229 196 181 167 150 154 150 143 148 151 151 171 174 169 168 170 167 177 178 170 170 156 155 207 243 216 202 197 201 196 180 175 183 185 178
165 140 156 193 218 268 324 227 254 285 302 299 200 190 115 160 172 165 168 169 165 162 163 167 178 179 178 183 188 180 171 172 183 179 172 176 190 202 204 213 214 211 203 197 177 178 195 183 191
134 156 159 133 148 227 279 287 302 340 357 11 28 44 34 312 191 173 161 153 170 169 182 186 186 183 185 201 198 184 175 177 187 186 178 185 194 191 189 207 213 218 203 193 177 186 207 193 204
116 137 98 117 146 229 279 268 255 279 289 315 350 348 323 329 316 253 167 168 186 181 189 196 197 196 193 200 196 192 192 191 189 182 190 192 193 190 184 200 205 214 207 191 181 197 208 198 222
76 78 96 109 146 159 225 263 236 225 224 217 249 276 278 289 247 269 303 290 202 162 182 201 202 203 202 202 195 194 202 191 185 193 203 202 202 193 191 198 201 212 213 203 198 211 206 208 228
123 139 139 144 202 166 175 260 300 226 225 207 241 295 320 340 4 355 360 40 52 135 178 195 195 194 203 195 182 193 187 176 193 208 214 207 207 203 198 195 200 211 212 210 211 223 220 216 224